Location: Sunset Hills
(34.4956°N, 117.2223°W)
Time: 04:47:05
(UTC+00:00)

Cosmos 1417 Rocket - Pass Details

Date: 03 August 2024
Orbit: 952 x 997 km, 83.0° (Epoch: 09 September)

Event Time Altitude Azimuth Distance (km) Brightness Sun altitude
Rises 12:09:03 0° 192° (SSW) 3,619 7.1 -10.5°
Reaches altitude 10° 12:11:33 10° 194° (SSW) 2,673 6.4 -10.1°
Maximum altitude 12:17:37 68° 277° (W) 1,023 4.5 -9.0°
Drops below altitude 10° 12:23:43 10° 0° (N) 2,685 7.2 -7.9°
Sets 12:26:15 0° 3° (N) 3,636 7.9 -7.4°
